| time (UTC) | temp C | wind direction | speed KPH | gust KPH | rain 1hr cm | rain 24hr cm | rain mn cm | humidity % | barometer mb |
| 20260507224406 | 13 | 35 | 3.2 | 4.8 | 0.00 | 0.05 | 0.00 | 89 | 1014.7 |
| 20260507223405 | 13 | 5 | 3.2 | 4.8 | 0.00 | 0.05 | 0.00 | 89 | 1014.7 |
| 20260507221906 | 13 | 26 | 3.2 | 4.8 | 0.00 | 0.05 | 0.00 | 89 | 1014.6 |
| 20260507221406 | 13 | 21 | 3.2 | 4.8 | 0.00 | 0.05 | 0.00 | 89 | 1014.7 |
| 20260507220906 | 13 | 24 | 3.2 | 4.8 | 0.00 | 0.05 | 0.00 | 89 | 1014.7 |
| 20260507220406 | 13 | 23 | 3.2 | 4.8 | 0.00 | 0.05 | 0.00 | 89 | 1014.8 |
| 20260507214905 | 13 | 19 | 1.6 | 4.8 | 0.00 | 0.05 | 0.05 | 88 | 1014.6 |
| 20260507214406 | 13 | 27 | 1.6 | 4.8 | 0.00 | 0.05 | 0.05 | 88 | 1014.6 |
| 20260507211906 | 14 | 34 | 3.2 | 4.8 | 0.00 | 0.05 | 0.05 | 88 | 1014.5 |
| 20260507211405 | 14 | 24 | 1.6 | 3.2 | 0.00 | 0.05 | 0.05 | 88 | 1014.6 |
| 20260507210906 | 14 | 19 | 3.2 | 4.8 | 0.00 | 0.05 | 0.05 | 87 | 1014.6 |
| 20260507210407 | 14 | 27 | 1.6 | 4.8 | 0.00 | 0.05 | 0.05 | 87 | 1014.6 |
| 20260507204405 | 14 | 11 | 1.6 | 4.8 | 0.00 | 0.05 | 0.05 | 87 | 1014.6 |
| 20260507203906 | 14 | 15 | 3.2 | 4.8 | 0.00 | 0.05 | 0.05 | 87 | 1014.6 |
| 20260507203405 | 14 | 21 | 1.6 | 4.8 | 0.00 | 0.05 | 0.05 | 87 | 1014.6 |
| 20260507201905 | 14 | 28 | 1.6 | 4.8 | 0.00 | 0.05 | 0.05 | 86 | 1014.5 |
| 20260507201405 | 14 | 18 | 1.6 | 3.2 | 0.00 | 0.05 | 0.05 | 86 | 1014.5 |
| 20260507200907 | 14 | 24 | 1.6 | 4.8 | 0.00 | 0.05 | 0.05 | 85 | 1014.6 |
| 20260507200405 | 14 | 28 | 3.2 | 4.8 | 0.00 | 0.05 | 0.05 | 85 | 1014.3 |
| 20260507194909 | 15 | 21 | 1.6 | 4.8 | 0.00 | 0.05 | 0.05 | 84 | 1014.2 |
| 20260507194405 | 15 | 28 | 1.6 | 4.8 | 0.00 | 0.05 | 0.05 | 84 | 1014.2 |
| 20260507193408 | 15 | 16 | 1.6 | 4.8 | 0.00 | 0.05 | 0.05 | 83 | 1014.2 |
| 20260507191908 | 16 | 23 | 1.6 | 3.2 | 0.00 | 0.05 | 0.05 | 82 | 1014.2 |
| 20260507191409 | 16 | 39 | 1.6 | 4.8 | 0.00 | 0.05 | 0.05 | 81 | 1014.2 |
| 20260507190905 | 16 | 5 | 1.6 | 3.2 | 0.00 | 0.05 | 0.05 | 81 | 1014.2 |
| 20260507190405 | 16 | 4 | 0.0 | 3.2 | 0.00 | 0.05 | 0.05 | 80 | 1014.1 |
| 20260507184917 | 16 | 15 | 1.6 | 3.2 | 0.00 | 0.05 | 0.05 | 79 | 1014.1 |
| 20260507184405 | 17 | 145 | 0.0 | 3.2 | 0.00 | 0.05 | 0.05 | 79 | 1014.2 |
| 20260507183912 | 17 | 145 | 0.0 | 1.6 | 0.00 | 0.05 | 0.05 | 79 | 1014.2 |
| 20260507183405 | 17 | 145 | 1.6 | 3.2 | 0.00 | 0.05 | 0.05 | 78 | 1014.2 |
| 20260507181905 | 17 | 102 | 0.0 | 1.6 | 0.00 | 0.05 | 0.05 | 77 | 1014.3 |
| 20260507181420 | 17 | 102 | 0.0 | 0.0 | 0.00 | 0.05 | 0.05 | 77 | 1014.2 |
| 20260507180921 | 17 | 102 | 0.0 | 0.0 | 0.00 | 0.05 | 0.05 | 77 | 1014.0 |
| 20260507180405 | 17 | 101 | 1.6 | 3.2 | 0.00 | 0.05 | 0.05 | 77 | 1014.2 |
| 20260507174905 | 17 | 180 | 0.0 | 1.6 | 0.00 | 0.05 | 0.05 | 76 | 1014.2 |
| 20260507174406 | 17 | 180 | 1.6 | 3.2 | 0.00 | 0.05 | 0.05 | 76 | 1014.2 |
| 20260507173412 | 18 | 225 | 0.0 | 4.8 | 0.00 | 0.05 | 0.05 | 76 | 1014.2 |
| 20260507170916 | 18 | 230 | 1.6 | 4.8 | 0.00 | 0.05 | 0.05 | 76 | 1014.3 |
| 20260507164906 | 18 | 241 | 1.6 | 4.8 | 0.00 | 0.05 | 0.05 | 76 | 1014.0 |
| 20260507164405 | 18 | 202 | 3.2 | 8.0 | 0.00 | 0.05 | 0.05 | 75 | 1014.1 |
| 20260507163905 | 18 | 161 | 1.6 | 4.8 | 0.00 | 0.05 | 0.05 | 76 | 1014.1 |
| 20260507161408 | 18 | 207 | 1.6 | 4.8 | 0.00 | 0.05 | 0.05 | 76 | 1013.9 |
| 20260507160907 | 18 | 154 | 3.2 | 8.0 | 0.00 | 0.05 | 0.05 | 77 | 1014.0 |
| 20260507160405 | 18 | 218 | 1.6 | 11.3 | 0.00 | 0.05 | 0.05 | 77 | 1014.0 |
| 20260507154905 | 18 | 157 | 3.2 | 9.7 | 0.03 | 0.05 | 0.05 | 78 | 1014.1 |
| 20260507154407 | 18 | 164 | 3.2 | 8.0 | 0.05 | 0.05 | 0.05 | 78 | 1014.2 |
| 20260507153904 | 18 | 149 | 1.6 | 4.8 | 0.05 | 0.05 | 0.05 | 78 | 1014.3 |
| 20260507153405 | 18 | 190 | 3.2 | 8.0 | 0.05 | 0.05 | 0.05 | 79 | 1014.3 |
| 20260507151905 | 18 | 157 | 1.6 | 8.0 | 0.05 | 0.05 | 0.05 | 82 | 1014.3 |
| 20260507151405 | 18 | 123 | 0.0 | 4.8 | 0.05 | 0.05 | 0.05 | 84 | 1014.3 |
| 20260507150905 | 17 | 187 | 3.2 | 8.0 | 0.05 | 0.05 | 0.05 | 84 | 1014.4 |
| 20260507143904 | 18 | 167 | 3.2 | 11.3 | 0.00 | 0.00 | 0.00 | 78 | 1014.4 |
| 20260507143406 | 18 | 175 | 4.8 | 11.3 | 0.00 | 0.00 | 0.00 | 77 | 1014.4 |
| 20260507141905 | 20 | 164 | 3.2 | 9.7 | 0.00 | 0.00 | 0.00 | 74 | 1014.5 |
| 20260507141405 | 20 | 175 | 3.2 | 8.0 | 0.00 | 0.00 | 0.00 | 76 | 1014.4 |
| 20260507140906 | 19 | 160 | 3.2 | 9.7 | 0.00 | 0.00 | 0.00 | 75 | 1014.4 |
| 20260507140406 | 18 | 165 | 6.4 | 12.9 | 0.00 | 0.00 | 0.00 | 77 | 1014.6 |
| 20260507134404 | 17 | 176 | 8.0 | 14.5 | 0.00 | 0.00 | 0.00 | 79 | 1014.5 |
| 20260507133904 | 17 | 183 | 4.8 | 11.3 | 0.00 | 0.00 | 0.00 | 79 | 1014.5 |
| 20260507133404 | 17 | 157 | 4.8 | 11.3 | 0.00 | 0.00 | 0.00 | 81 | 1014.6 |
| 20260507130904 | 17 | 158 | 3.2 | 9.7 | 0.00 | 0.00 | 0.00 | 81 | 1014.6 |
| 20260507130404 | 17 | 146 | 4.8 | 16.1 | 0.00 | 0.00 | 0.00 | 80 | 1014.6 |
| 20260507124908 | 17 | 147 | 1.6 | 4.8 | 0.00 | 0.00 | 0.00 | 80 | 1014.6 |
| 20260507124408 | 17 | 150 | 1.6 | 4.8 | 0.00 | 0.00 | 0.00 | 80 | 1014.6 |
| 20260507123404 | 17 | 165 | 4.8 | 14.5 | 0.00 | 0.00 | 0.00 | 79 | 1014.4 |
| 20260507120905 | 18 | 151 | 8.0 | 14.5 | 0.00 | 0.00 | 0.00 | 76 | 1014.2 |
| 20260507120404 | 18 | 154 | 6.4 | 16.1 | 0.00 | 0.00 | 0.00 | 76 | 1014.3 |
| 20260507114905 | 20 | 154 | 6.4 | 9.7 | 0.00 | 0.00 | 0.00 | 71 | 1014.3 |
| 20260507114405 | 19 | 155 | 4.8 | 12.9 | 0.00 | 0.00 | 0.00 | 72 | 1014.3 |
| 20260507113404 | 18 | 184 | 8.0 | 14.5 | 0.00 | 0.00 | 0.00 | 73 | 1014.5 |
| 20260507111905 | 17 | 162 | 3.2 | 9.7 | 0.00 | 0.00 | 0.00 | 75 | 1014.5 |
| 20260507111405 | 18 | 129 | 4.8 | 14.5 | 0.00 | 0.00 | 0.00 | 75 | 1014.5 |
| 20260507110406 | 18 | 167 | 3.2 | 12.9 | 0.00 | 0.00 | 0.00 | 74 | 1014.5 |
| 20260507104905 | 18 | 171 | 4.8 | 12.9 | 0.00 | 0.00 | 0.00 | 76 | 1014.4 |
| 20260507104409 | 17 | 137 | 8.0 | 16.1 | 0.00 | 0.00 | 0.00 | 78 | 1014.4 |
| 20260507103909 | 17 | 144 | 6.4 | 14.5 | 0.00 | 0.00 | 0.00 | 78 | 1014.4 |
| 20260507101904 | 17 | 136 | 3.2 | 9.7 | 0.00 | 0.00 | 0.00 | 79 | 1014.6 |
| 20260507101404 | 17 | 149 | 1.6 | 8.0 | 0.00 | 0.00 | 0.00 | 78 | 1014.6 |
| 20260507100905 | 17 | 141 | 4.8 | 11.3 | 0.00 | 0.00 | 0.00 | 78 | 1014.6 |
| 20260507100405 | 17 | 167 | 4.8 | 12.9 | 0.00 | 0.00 | 0.00 | 78 | 1014.5 |
| 20260507094904 | 17 | 108 | 4.8 | 16.1 | 0.00 | 0.00 | 0.00 | 77 | 1014.6 |
| 20260507093910 | 17 | 128 | 6.4 | 19.3 | 0.00 | 0.00 | 0.00 | 77 | 1014.5 |
| 20260507093404 | 17 | 152 | 4.8 | 16.1 | 0.00 | 0.00 | 0.00 | 79 | 1014.5 |
| 20260507091407 | 17 | 164 | 8.0 | 19.3 | 0.00 | 0.00 | 0.00 | 75 | 1014.4 |
| 20260507090407 | 17 | 151 | 4.8 | 19.3 | 0.00 | 0.00 | 0.00 | 77 | 1014.4 |
| 20260507084907 | 17 | 167 | 4.8 | 12.9 | 0.00 | 0.00 | 0.00 | 78 | 1014.3 |
| 20260507084406 | 17 | 118 | 4.8 | 12.9 | 0.00 | 0.00 | 0.00 | 77 | 1014.2 |
| 20260507081908 | 17 | 156 | 4.8 | 11.3 | 0.00 | 0.00 | 0.00 | 76 | 1014.0 |
| 20260507080909 | 17 | 144 | 4.8 | 11.3 | 0.00 | 0.00 | 0.00 | 77 | 1014.1 |
| 20260507080406 | 17 | 156 | 3.2 | 12.9 | 0.00 | 0.00 | 0.00 | 77 | 1014.1 |
| 20260507074407 | 16 | 128 | 4.8 | 14.5 | 0.00 | 0.00 | 0.00 | 78 | 1013.8 |
| 20260507073906 | 16 | 114 | 3.2 | 11.3 | 0.00 | 0.00 | 0.00 | 77 | 1013.9 |
| 20260507073406 | 16 | 123 | 3.2 | 11.3 | 0.00 | 0.00 | 0.00 | 77 | 1013.9 |
| 20260507071907 | 16 | 86 | 3.2 | 9.7 | 0.00 | 0.00 | 0.00 | 76 | 1013.7 |
| 20260507071406 | 16 | 94 | 1.6 | 9.7 | 0.00 | 0.00 | 0.00 | 76 | 1013.6 |
| 20260507070907 | 16 | 120 | 1.6 | 9.7 | 0.00 | 0.00 | 0.00 | 76 | 1013.7 |
| 20260507070409 | 16 | 127 | 3.2 | 14.5 | 0.00 | 0.00 | 0.00 | 76 | 1013.7 |
| 20260507064914 | 16 | 80 | 1.6 | 4.8 | 0.00 | 0.00 | 0.00 | 78 | 1013.6 |
| 20260507064406 | 16 | 119 | 3.2 | 4.8 | 0.00 | 0.00 | 0.00 | 78 | 1013.4 |
| 20260507063906 | 16 | 80 | 3.2 | 8.0 | 0.00 | 0.00 | 0.00 | 79 | 1013.5 |
| 20260507061910 | 15 | 108 | 1.6 | 4.8 | 0.00 | 0.18 | 0.00 | 79 | 1013.3 |
| 20260507061406 | 15 | 100 | 3.2 | 9.7 | 0.00 | 0.18 | 0.00 | 79 | 1013.2 |
| 20260507060907 | 15 | 107 | 3.2 | 9.7 | 0.00 | 0.18 | 0.00 | 79 | 1013.1 |
| 20260507060406 | 15 | 110 | 3.2 | 4.8 | 0.00 | 0.18 | 0.00 | 79 | 1013.2 |
| 20260507054907 | 15 | 113 | 1.6 | 4.8 | 0.00 | 0.18 | 0.00 | 80 | 1013.1 |
| 20260507054407 | 15 | 124 | 3.2 | 8.0 | 0.00 | 0.18 | 0.00 | 80 | 1013.2 |
| 20260507053907 | 15 | 100 | 1.6 | 4.8 | 0.00 | 0.18 | 0.00 | 80 | 1013.1 |
| 20260507051907 | 15 | 107 | 4.8 | 9.7 | 0.00 | 0.18 | 0.00 | 80 | 1012.7 |
| 20260507051407 | 15 | 114 | 1.6 | 9.7 | 0.00 | 0.18 | 0.00 | 80 | 1012.6 |
| 20260507050906 | 15 | 129 | 1.6 | 4.8 | 0.00 | 0.18 | 0.00 | 80 | 1012.5 |
| 20260507050406 | 15 | 106 | 1.6 | 9.7 | 0.00 | 0.18 | 0.00 | 79 | 1012.5 |
| 20260507044910 | 15 | 66 | 3.2 | 11.3 | 0.00 | 0.18 | 0.00 | 79 | 1012.2 |
| 20260507044406 | 15 | 53 | 1.6 | 4.8 | 0.00 | 0.18 | 0.00 | 79 | 1012.3 |
| 20260507043906 | 15 | 103 | 1.6 | 4.8 | 0.00 | 0.18 | 0.00 | 80 | 1012.3 |
| 20260507043407 | 15 | 148 | 0.0 | 4.8 | 0.00 | 0.18 | 0.00 | 79 | 1012.3 |
| 20260507041907 | 15 | 123 | 1.6 | 4.8 | 0.00 | 0.20 | 0.00 | 79 | 1012.2 |
| 20260507041406 | 15 | 165 | 3.2 | 8.0 | 0.00 | 0.20 | 0.00 | 79 | 1012.2 |
| 20260507040906 | 15 | 113 | 0.0 | 3.2 | 0.00 | 0.20 | 0.00 | 79 | 1012.1 |
| 20260507040407 | 15 | 94 | 1.6 | 11.3 | 0.00 | 0.20 | 0.00 | 79 | 1012.0 |
| 20260507034906 | 15 | 99 | 3.2 | 12.9 | 0.00 | 0.23 | 0.00 | 79 | 1012.2 |
| 20260507034407 | 15 | 119 | 3.2 | 9.7 | 0.00 | 0.23 | 0.00 | 79 | 1012.1 |
| 20260507033407 | 15 | 68 | 1.6 | 9.7 | 0.00 | 0.23 | 0.00 | 80 | 1012.1 |
| 20260507031906 | 15 | 99 | 3.2 | 4.8 | 0.00 | 0.23 | 0.00 | 80 | 1012.1 |
| 20260507031406 | 15 | 110 | 3.2 | 11.3 | 0.00 | 0.23 | 0.00 | 80 | 1012.1 |
| 20260507030908 | 15 | 135 | 1.6 | 8.0 | 0.00 | 0.23 | 0.00 | 79 | 1012.1 |
| 20260507030408 | 15 | 108 | 4.8 | 9.7 | 0.00 | 0.23 | 0.00 | 79 | 1012.0 |
| 20260507024906 | 15 | 106 | 3.2 | 9.7 | 0.00 | 0.25 | 0.00 | 79 | 1012.1 |
| 20260507024406 | 15 | 100 | 1.6 | 4.8 | 0.00 | 0.28 | 0.00 | 79 | 1012.1 |
| 20260507023906 | 15 | 117 | 3.2 | 9.7 | 0.00 | 0.43 | 0.00 | 79 | 1012.1 |
| 20260507023406 | 15 | 109 | 3.2 | 9.7 | 0.00 | 0.64 | 0.00 | 79 | 1012.0 |
| 20260507021906 | 15 | 96 | 1.6 | 4.8 | 0.00 | 1.17 | 0.00 | 78 | 1012.2 |
| 20260507021406 | 15 | 95 | 4.8 | 12.9 | 0.00 | 1.50 | 0.00 | 78 | 1012.0 |
| 20260507020906 | 15 | 154 | 3.2 | 11.3 | 0.00 | 1.85 | 0.00 | 78 | 1012.1 |
| 20260507020406 | 15 | 100 | 3.2 | 11.3 | 0.00 | 2.36 | 0.00 | 78 | 1012.0 |
| 20260507014405 | 15 | 108 | 1.6 | 4.8 | 0.00 | 2.64 | 0.00 | 78 | 1012.1 |
| 20260507013906 | 15 | 113 | 3.2 | 4.8 | 0.00 | 2.67 | 0.00 | 78 | 1012.0 |
| 20260507013406 | 15 | 104 | 3.2 | 9.7 | 0.00 | 2.72 | 0.00 | 78 | 1012.1 |
| 20260507011906 | 15 | 142 | 1.6 | 4.8 | 0.00 | 2.95 | 0.00 | 78 | 1012.2 |
| 20260507011407 | 15 | 116 | 3.2 | 4.8 | 0.00 | 2.97 | 0.00 | 78 | 1012.1 |
| 20260507004906 | 15 | 77 | 1.6 | 4.8 | 0.00 | 3.12 | 0.00 | 77 | 1012.3 |
| 20260507004407 | 15 | 93 | 1.6 | 4.8 | 0.00 | 3.15 | 0.00 | 77 | 1012.3 |
| 20260507003408 | 15 | 118 | 1.6 | 8.0 | 0.00 | 3.15 | 0.00 | 77 | 1012.3 |
| 20260507001906 | 15 | 140 | 3.2 | 9.7 | 0.00 | 3.15 | 0.00 | 77 | 1012.2 |
| 20260507001406 | 15 | 138 | 3.2 | 8.0 | 0.00 | 3.15 | 0.00 | 77 | 1012.3 |
| 20260507000906 | 16 | 128 | 3.2 | 11.3 | 0.00 | 3.15 | 0.00 | 77 | 1012.3 |
| 20260507000406 | 16 | 119 | 1.6 | 12.9 | 0.00 | 3.15 | 0.00 | 77 | 1012.3 |
| 20260506234408 | 16 | 141 | 6.4 | 12.9 | 0.00 | 3.15 | 0.00 | 76 | 1012.4 |
| 20260506233406 | 15 | 149 | 3.2 | 8.0 | 0.00 | 3.15 | 0.00 | 76 | 1012.4 |
| 20260506231913 | 15 | 109 | 1.6 | 4.8 | 0.00 | 3.15 | 0.00 | 76 | 1012.5 |
| 20260506231407 | 15 | 104 | 3.2 | 4.8 | 0.00 | 3.15 | 0.00 | 76 | 1012.4 |
| 20260506230906 | 15 | 113 | 3.2 | 8.0 | 0.00 | 3.15 | 0.00 | 76 | 1012.4 |
| 20260506230409 | 15 | 130 | 3.2 | 11.3 | 0.00 | 3.15 | 0.00 | 76 | 1012.4 |